AirNav   Bose A20 Aviation Headset
 
 858 users online  

69G Richmond Field Airport
Gregory, Michigan, USA

GOING TO GREGORY?


FAA INFORMATION EFFECTIVE 11 OCTOBER 2018

Location

FAA Identifier: 69G
Lat/Long: 42-26-30.1260N / 084-03-59.8270W
42-26.502100N / 084-03.997117W
42.4417017 / -84.0666186
(estimated)
Elevation: 921 ft. / 280.7 m (surveyed)
Variation: 05W (1985)
From city: 2 miles SE of GREGORY, MI
Time zone: UTC -4 (UTC -5 during Standard Time)
Zip code: 48137

Airport Operations

Airport use: Open to the public
Activation date: 11/1946
Control tower: no
ARTCC: CLEVELAND CENTER
FSS: LANSING FLIGHT SERVICE STATION
NOTAMs facility: LAN (NOTAM-D service available)
Attendance: APR-NOV WED IREG, APR-NOV SAT-SUN DAYLIGHT HOURS
Wind indicator: yes
Segmented circle: yes

Airport Communications

CTAF: 122.9
WX AWOS-3 at OZW (12 nm N): 118.875 (517-546-4450)
WX AWOS-3 at TEW (17 nm NW): 119.425 (517-676-5607)
WX ASOS at ARB (19 nm SE): PHONE 734-668-7173

Nearby radio navigation aids

VOR radial/distance  VOR name  Freq  Var
JXNr063/20.5JACKSON VOR/DME109.6005W
SVMr278/21.0SALEM VORTAC114.3003W
DXOr300/33.9DETROIT VOR/DME113.4006W
FNTr210/34.5FLINT VORTAC116.9006W
CRLr314/35.9CARLETON VOR/DME115.7003W
LFDr059/38.5LITCHFIELD VOR/DME111.2005W

 
NDB name  Hdg/Dist  Freq  Var  ID
TECUMSEH348/25.723906WTCU - -.-. ..-
ADRIAN007/34.327806WADG .- -.. --.

Airport Services

Parking: tiedowns
Airframe service: NONE
Powerplant service: NONE
Bottled oxygen: NONE
Bulk oxygen: NONE

Runway Information

Runway 18/36

Dimensions: 2471 x 100 ft. / 753 x 30 m
Surface: turf, in good condition
Runway edge markings: RY 18 /36 MARKED WITH 2 FT CONES.
RUNWAY 18  RUNWAY 36
Latitude: 42-26.728333N42-26.321667N
Longitude: 084-03.871667W084-03.851667W
Elevation: 921.0 ft.921.0 ft.
Traffic pattern: leftleft
Displaced threshold: 800 ft.
DSPLCD THLDS MKD WITH 2 FT CONES.
no
Runway end identifier lights: nono
Obstructions: 30 ft. pline, marked, 50 ft. from runway, 1:1 slope to clear
APCH RATIO 14:1 TO DSPLCD THLD, + 64' TREE 897' DSTC, 65 FT R.
52 ft. trees, 678 ft. from runway, 80 ft. right of centerline, 13:1 slope to clear

Airport Ownership and Management from official FAA records

Ownership: Privately-owned
Owner: JAMES BARNES
524 LAKEVIEW AVE
ANN ARBOR, MI 48103
Phone 734-761-6107
Manager: MICHAEL S. CAMPBELL
19935 DOYLE RD
GREGORY, MI 48137
Phone 734-498-2075

Airport Operational Statistics

Aircraft based on the field: 36
Single engine airplanes: 4
Gliders airplanes: 32
    
Aircraft operations: avg 128/week *
50% transient general aviation
50% local general aviation
* for 12-month period ending 31 December 2015

Additional Remarks

RWY NOT PLOWED WINTER.
GLIDERS ALSO USE THE TURF AREA WEST OF RWY 18/36, GLIDER FREQUENCY 123.5.
EXTENSIVE GLIDER OPNS ON & INVOF ARPT.
FOR CD CTC DETROIT APCH AT 800-499-8181.

Instrument Procedures

There are no published instrument procedures at 69G.

Some nearby airports with instrument procedures:

KOZW - Livingston County Spencer J Hardy Airport (12 nm N)
KTEW - Mason Jewett Field Airport (17 nm NW)
KARB - Ann Arbor Municipal Airport (19 nm SE)
Y47 - Oakland Southwest Airport (20 nm E)
KJXN - Jackson County Airport-Reynolds Field (21 nm SW)
 
Loc | Ops | Rwys | IFR | FBO | Links
Com | Nav | Svcs | Stats | Notes


 
Area around 69G (Richmond Field Airport)
 
Road maps at: MapQuest Bing Google
 
Aerial photo
WARNING: Photo may not be current or correct
Aerial photo of 69G (Richmond Field Airport)
Photo taken 06-Nov-2016

Do you have a better or more recent aerial photo of Richmond Field Airport that you would like to share? If so, please send us your photo.

 
Sectional chart

 
Airport distance calculator
Flying to Richmond Field Airport? Find the distance to fly.

From to 69G

Sunrise and sunset
Times for 16-Oct-2018
 Local
(UTC-4)
 Zulu
(UTC)
Morning civil twilight07:2311:23
Sunrise07:5111:51
Sunset18:5222:52
Evening civil twilight19:2123:21

Current date and time
Zulu (UTC)  16-Oct-2018 12:09:26
Local (UTC-4)  16-Oct-2018 08:09:26
 
METAR
KOZW 
11nm NE 
161155Z AUTO 20004KT 10SM CLR 00/00 A3017 RMK AO2 70001 T00011005 10015 20000
KTEW 
17nm NW 
161155Z AUTO 00000KT 10SM CLR 01/00 A3018 RMK AO2 T00131005 10032 20012
KARB 
20nm SE 
734-668-7173
161153Z AUTO 23003KT 8SM CLR M03/M04 A3019 RMK AO2 SLP231 I1000 I6001 T10281039 11017 21050 58005
KJXN 
21nm SW 
161156Z 22005KT 10SM CLR M01/M01 A3018 RMK AO2 SLP231 T10061011 10022 21006 58003
TAF
KJXN 
21nm SW 
161120Z 1612/1712 21008KT P6SM SKC FM161400 22012G21KT P6SM SKC FM161600 24017G26KT P6SM SCT100 FM170000 24010KT P6SM BKN100 FM170400 27010KT P6SM VCSH BKN040
NOTAMs
Click for the latest NOTAMs
NOTAMs are issued by the DoD/FAA and will open in a separate window not controlled by AirNav.

 

 
 

Would you like to see your business listed on this page?

 If your business provides an interesting product or service to pilots, flight crews, aircraft, or users of the Richmond Field Airport, you should consider listing it here.  To start the listing process, click on the button below
 
Add a business
 

Other Pages about Richmond Field Airport

Page from the Michigan Airport Directory (PDF)
 
Update a link
 
Copyright © AirNav, LLC. All rights reserved. Privacy Policy  Contact